(118058) = 2000 WU21 = 4175 T-2

Discovered at Palomar on 1973-09-29 by C. J. van Houten, I. van Houten-Groeneveld, and T. Gehrels.

Orbit

Orbit type: Main Belt

Note: WebGL enabled browser required.

epoch2023-09-13.0
epoch JD2460200.5
perihelion date2023-08-13.43748
perihelion JD2460169.93748
argument of perihelion (°)311.75347
ascending node (°)14.35095
inclination (°)8.54589
eccentricity0.1896699
perihelion distance (AU)1.8111879
Tisserand w.r.t. Jupiter3.6
ΔV w.r.t. Earth (km/sec)8.7
semimajor axis (AU)2.2351235
mean anomaly (°)9.01448
mean daily motion (°/day)0.29495210
aphelion distance (AU)2.659
period (years)3.34
P-vector [x]0.82800229
P-vector [y]-0.46020288
P-vector [z]-0.32035218
Q-vector [x]0.55951370
Q-vector [y]0.71562586
Q-vector [z]0.41811966
absolute magnitude16.41
phase slope0.15
uncertainty0
referenceMPEC 2024-A55
observations used907
oppositions16
arc length (days)18341
first opposition used1973
last opposition used2023
residual rms (arc-secs)0.68
perturbers coarse indicatorM-v
perturbers precise indicator003Ek
first observation date used1973-09-19.0
last observation date used2023-12-07.0
computer nameMPCLINUX
JD of orbit computation2456700.426140
perihelion JD uncertainty (days)4.6932E-05
argument of perihelion uncertainty (°)3.5444E-05
ascending node uncertainty (°)3.2173E-05
inclination uncertainty (°)7.2585E-06
eccentricity uncertainty 7.1582E-08
perihelion distance uncertainty (AU)1.6056E-07
Minimum Orbit Intersection Distances (in AU)
for orbit epoch: 2460200.5, reference: E2024-A55
Mercury1.394
Venus1.08493
Earth0.81281
Mars0.44449
Jupiter2.70285
Saturn6.54812
Uranus15.8136
Neptune27.6563

Observations

921 total observations over interval: 1973 09 19.22500 – 2023 12 07.100495
These data are available for download (format description).

Date (UT) J2000 RA J2000 Dec Magn Location Ref
1973 09 19.22500 00 44 41.71 +00 44 33.0   675 – Palomar Mountain MPS 16130
1973 09 19.27865 00 44 38.22 +00 44 36.7   675 – Palomar Mountain MPS 16130
1973 09 20.30278 00 43 32.46 +00 45 46.8   675 – Palomar Mountain MPS 16130
1973 09 24.38750 00 39 01.33 +00 50 09.9   675 – Palomar Mountain MPS 16130
1973 09 24.45434 00 38 56.59 +00 50 13.5   675 – Palomar Mountain MPS 16130
1973 09 25.28125 00 38 00.98 +00 51 04.4   675 – Palomar Mountain MPS 16130
1973 09 25.34601 00 37 56.32 +00 51 08.6   675 – Palomar Mountain MPS 16130
1973 09 29.29219 00 33 25.55 +00 55 15.0 18.6   675 – Palomar Mountain MPS 16130
1973 09 29.35694 00 33 20.89 +00 55 17.9   675 – Palomar Mountain MPS 16130
1973 09 30.24826 00 32 19.86 +00 56 20.6   675 – Palomar Mountain MPS 16130
1973 09 30.31476 00 32 15.12 +00 56 24.1   675 – Palomar Mountain MPS 16130
1973 10 04.30208 00 27 43.55 +01 01 07.0   675 – Palomar Mountain MPS 16130
1973 10 04.32708 00 27 41.76 +01 01 11.3   675 – Palomar Mountain MPS 16130
1973 10 04.36476 00 27 39.21 +01 01 12.7   675 – Palomar Mountain MPS 16130
1973 10 04.38889 00 27 37.41 +01 01 16.3   675 – Palomar Mountain MPS 16130
1973 10 05.32917 00 26 34.99 +01 02 26.0   675 – Palomar Mountain MPS 16130
1973 10 05.35382 00 26 33.14 +01 02 31.3   675 – Palomar Mountain MPS 16130
1973 10 05.39132 00 26 30.64 +01 02 32.2   675 – Palomar Mountain MPS 16130
1973 10 05.41597 00 26 28.75 +01 02 36.1   675 – Palomar Mountain MPS 16130
2000 10 25.36397 04 12 09.66 +30 07 05.8 19.1   704 – Lincoln Laboratory ETS, New Mexico MPS 22845
2000 10 25.37981 04 12 08.80 +30 07 08.9 19.5   704 – Lincoln Laboratory ETS, New Mexico MPS 22845
2000 10 25.39709 04 12 07.95 +30 07 14.1 19.8   704 – Lincoln Laboratory ETS, New Mexico MPS 22845
2000 10 25.41126 04 12 07.06 +30 07 18.7 19.2   704 – Lincoln Laboratory ETS, New Mexico MPS 22845
2000 10 25.42484 04 12 06.33 +30 07 22.0 19.0   704 – Lincoln Laboratory ETS, New Mexico MPS 22845
2000 11 05.33320 04 00 48.01 +30 44 10.9 18.3   704 – Lincoln Laboratory ETS, New Mexico MPS 22845
2000 11 05.34862 04 00 46.95 +30 44 13.5 18.2   704 – Lincoln Laboratory ETS, New Mexico MPS 22845
2000 11 05.36388 04 00 45.79 +30 44 14.8 18.1   704 – Lincoln Laboratory ETS, New Mexico MPS 22845
2000 11 19.31660 03 42 39.21 +30 54 56.7 19.9   704 – Lincoln Laboratory ETS, New Mexico MPS 22845
2000 11 19.33452 03 42 37.81 +30 54 56.1 19.8   704 – Lincoln Laboratory ETS, New Mexico MPS 22845
2000 11 19.34963 03 42 36.47 +30 54 54.9 20.2   704 – Lincoln Laboratory ETS, New Mexico MPS 22845
2000 11 19.36497 03 42 35.24 +30 54 54.0 19.8   704 – Lincoln Laboratory ETS, New Mexico MPS 22845
2000 11 19.38014 03 42 33.98 +30 54 53.5 19.5   704 – Lincoln Laboratory ETS, New Mexico MPS 22845
2000 11 26.23709 03 33 35.06 +30 45 12.9 18.8   704 – Lincoln Laboratory ETS, New Mexico MPS 22845
2000 11 26.25186 03 33 33.94 +30 45 10.8 19.5   704 – Lincoln Laboratory ETS, New Mexico MPS 22845
2000 11 26.26666 03 33 32.72 +30 45 09.3 19.3   704 – Lincoln Laboratory ETS, New Mexico MPS 22845
2000 11 26.28145 03 33 31.57 +30 45 07.3 19.1   704 – Lincoln Laboratory ETS, New Mexico MPS 22845
2000 11 26.29641 03 33 30.38 +30 45 05.0 19.5   704 – Lincoln Laboratory ETS, New Mexico MPS 22845
2000 11 30.24256 03 28 40.10 +30 35 53.9 19.0   704 – Lincoln Laboratory ETS, New Mexico MPS 22845
2000 11 30.25768 03 28 39.03 +30 35 51.0 19.4   704 – Lincoln Laboratory ETS, New Mexico MPS 22845
2000 11 30.27440 03 28 37.69 +30 35 48.7 19.5   704 – Lincoln Laboratory ETS, New Mexico MPS 22845
2000 12 04.21219 03 24 10.73 +30 24 38.4 19.0   704 – Lincoln Laboratory ETS, New Mexico MPS 22845
2000 12 04.22701 03 24 09.71 +30 24 34.7 19.6   704 – Lincoln Laboratory ETS, New Mexico MPS 22845
2000 12 04.24182 03 24 08.70 +30 24 32.5 19.5   704 – Lincoln Laboratory ETS, New Mexico MPS 22845
2000 12 04.25665 03 24 07.49 +30 24 29.3 19.6   704 – Lincoln Laboratory ETS, New Mexico MPS 22845
2000 12 04.27146 03 24 06.55 +30 24 26.4 19.8   704 – Lincoln Laboratory ETS, New Mexico MPS 22845
2003 07 04.42326 23 35 54.51 -14 59 17.6 19.0 R 699 – Lowell Observatory-LONEOS MPS 82150
2003 07 04.43402 23 35 55.23 -14 59 14.2   699 – Lowell Observatory-LONEOS MPS 82150
2003 07 04.44473 23 35 55.89 -14 59 11.3   699 – Lowell Observatory-LONEOS MPS 82150
2003 07 04.45546 23 35 56.53 -14 59 08.0   699 – Lowell Observatory-LONEOS MPS 82150
2003 08 21.48600 23 45 15.74 -13 26 01.9 19.6   608 – Haleakala-AMOS MPS 83114
2003 08 21.49689 23 45 15.26 -13 26 01.8 18.9   608 – Haleakala-AMOS MPS 83114
2003 08 21.50805 23 45 14.72 -13 26 01.9 18.8   608 – Haleakala-AMOS MPS 83114
2003 08 23.45074 23 43 46.69 -13 26 01.6 17.4   644 – Palomar Mountain/NEAT MPS 83535
2003 08 23.46396 23 43 46.02 -13 26 01.5 17.6   644 – Palomar Mountain/NEAT MPS 83535
2003 08 23.47517 23 43 45.46 -13 26 01.4 17.7   644 – Palomar Mountain/NEAT MPS 83535
2003 08 27.30155 23 40 32.10 -13 25 38.8 17.4   644 – Palomar Mountain/NEAT MPS 83535
2003 08 27.36666 23 40 28.35 -13 25 38.2 17.4   644 – Palomar Mountain/NEAT MPS 83535
2003 08 27.42971 23 40 24.72 -13 25 37.2 17.4   644 – Palomar Mountain/NEAT MPS 83535
2003 08 31.31987 23 36 42.97 -13 24 22.9 18.5   704 – Lincoln Laboratory ETS, New Mexico MPS 84174
2003 08 31.33160 23 36 42.25 -13 24 21.9 18.7   704 – Lincoln Laboratory ETS, New Mexico MPS 84174
2003 08 31.34352 23 36 41.46 -13 24 22.3 18.4   704 – Lincoln Laboratory ETS, New Mexico MPS 84174
2003 08 31.35524 23 36 40.71 -13 24 21.0 18.5   704 – Lincoln Laboratory ETS, New Mexico MPS 84174
2003 08 31.36754 23 36 39.98 -13 24 21.5 18.6   704 – Lincoln Laboratory ETS, New Mexico MPS 84174
2003 09 14.55340 23 21 24.67 -13 04 53.9 19.1   608 – Haleakala-AMOS MPS 84643
2003 09 14.56419 23 21 23.97 -13 04 52.3 18.8   608 – Haleakala-AMOS MPS 84643
2003 09 14.57510 23 21 23.19 -13 04 50.2 18.6   608 – Haleakala-AMOS MPS 84643
2003 09 17.24237 23 18 31.25 -12 57 42.9 17.6   704 – Lincoln Laboratory ETS, New Mexico MPS 84643
2003 09 17.25464 23 18 30.48 -12 57 42.0 17.6   704 – Lincoln Laboratory ETS, New Mexico MPS 84643
2003 09 17.26762 23 18 29.54 -12 57 38.5 17.9   704 – Lincoln Laboratory ETS, New Mexico MPS 84643
2003 09 17.29193 23 18 27.94 -12 57 34.3 17.8   704 – Lincoln Laboratory ETS, New Mexico MPS 84643
2003 09 24.26041 23 11 26.67 -12 32 42.0 17.6   644 – Palomar Mountain/NEAT MPS 85562
2003 09 24.28330 23 11 25.28 -12 32 36.2 17.6   644 – Palomar Mountain/NEAT MPS 85562
2003 09 24.30450 23 11 24.01 -12 32 30.7 17.6   644 – Palomar Mountain/NEAT MPS 85562
2003 09 25.30964 23 10 28.61 -12 28 09.1 19.1   608 – Haleakala-AMOS MPS 85562
2003 09 25.32073 23 10 27.97 -12 28 06.1 19.0   608 – Haleakala-AMOS MPS 85562
2003 09 25.33128 23 10 27.35 -12 28 03.3 19.3   608 – Haleakala-AMOS MPS 85562
2003 09 28.17183 23 07 58.61 -12 14 47.1 18.2   704 – Lincoln Laboratory ETS, New Mexico MPS 86365
2003 09 28.18499 23 07 57.90 -12 14 43.5 18.5   704 – Lincoln Laboratory ETS, New Mexico MPS 86365
2003 09 28.19820 23 07 57.20 -12 14 39.5 18.4   704 – Lincoln Laboratory ETS, New Mexico MPS 86365
2003 09 28.21127 23 07 56.52 -12 14 35.5 18.4   704 – Lincoln Laboratory ETS, New Mexico MPS 86365
2003 09 28.22393 23 07 55.84 -12 14 31.6 18.5   704 – Lincoln Laboratory ETS, New Mexico MPS 86365
2003 10 05.38509 23 02 47.62 -11 34 25.9 19.4   608 – Haleakala-AMOS MPS 87144
2003 10 05.39618 23 02 47.16 -11 34 22.9 20.1   608 – Haleakala-AMOS MPS 87144
2003 10 05.40705 23 02 46.69 -11 34 18.6 19.5   608 – Haleakala-AMOS MPS 87144
2003 10 12.21167 22 59 34.38 -10 48 19.8 18.5 R 699 – Lowell Observatory-LONEOS MPS 87414
2003 10 12.22670 22 59 34.13 -10 48 13.7   699 – Lowell Observatory-LONEOS MPS 87414
2003 10 12.24165 22 59 33.74 -10 48 07.2   699 – Lowell Observatory-LONEOS MPS 87414
2003 10 12.25664 22 59 33.40 -10 48 00.5   699 – Lowell Observatory-LONEOS MPS 87414
2003 10 14.15357 22 58 58.50 -10 33 56.4 18.4 R 699 – Lowell Observatory-LONEOS MPS 87414
2003 10 14.17357 22 58 58.15 -10 33 48.7   699 – Lowell Observatory-LONEOS MPS 87414
2003 10 14.19352 22 58 57.65 -10 33 39.6   699 – Lowell Observatory-LONEOS MPS 87414
